Index of /20260505/WXO-DD/model_rdps/10km/06/082
Name Last modified Size Description
Parent Directory -
20260505T06Z_MSC_RDPS_AbsoluteVorticity_IsbL-0250_RLatLon0.09_PT082H.grib2 2026-05-05 09:03 591K
20260505T06Z_MSC_RDPS_AbsoluteVorticity_IsbL-0500_RLatLon0.09_PT082H.grib2 2026-05-05 09:03 554K
20260505T06Z_MSC_RDPS_AbsoluteVorticity_IsbL-0700_RLatLon0.09_PT082H.grib2 2026-05-05 09:03 615K
20260505T06Z_MSC_RDPS_AbsoluteVorticity_IsbL-0850_RLatLon0.09_PT082H.grib2 2026-05-05 09:03 791K
20260505T06Z_MSC_RDPS_AirTemp_AGL-120m_RLatLon0.09_PT082H.grib2 2026-05-05 09:03 385K
20260505T06Z_MSC_RDPS_AirTemp_AGL-2m_RLatLon0.09_PT082H.grib2 2026-05-05 09:03 631K
20260505T06Z_MSC_RDPS_AirTemp_AGL-40m_RLatLon0.09_PT082H.grib2 2026-05-05 09:03 396K
20260505T06Z_MSC_RDPS_AirTemp_AGL-80m_RLatLon0.09_PT082H.grib2 2026-05-05 09:03 390K
20260505T06Z_MSC_RDPS_AirTemp_IsbL-0001_RLatLon0.09_PT082H.grib2 2026-05-05 09:03 246K
20260505T06Z_MSC_RDPS_AirTemp_IsbL-0005_RLatLon0.09_PT082H.grib2 2026-05-05 09:03 371K
20260505T06Z_MSC_RDPS_AirTemp_IsbL-0010_RLatLon0.09_PT082H.grib2 2026-05-05 09:03 388K
20260505T06Z_MSC_RDPS_AirTemp_IsbL-0020_RLatLon0.09_PT082H.grib2 2026-05-05 09:03 316K
20260505T06Z_MSC_RDPS_AirTemp_IsbL-0030_RLatLon0.09_PT082H.grib2 2026-05-05 09:03 339K
20260505T06Z_MSC_RDPS_AirTemp_IsbL-0050_RLatLon0.09_PT082H.grib2 2026-05-05 09:03 311K
20260505T06Z_MSC_RDPS_AirTemp_IsbL-0100_RLatLon0.09_PT082H.grib2 2026-05-05 09:03 420K
20260505T06Z_MSC_RDPS_AirTemp_IsbL-0150_RLatLon0.09_PT082H.grib2 2026-05-05 09:03 404K
20260505T06Z_MSC_RDPS_AirTemp_IsbL-0175_RLatLon0.09_PT082H.grib2 2026-05-05 09:03 400K
20260505T06Z_MSC_RDPS_AirTemp_IsbL-0200_RLatLon0.09_PT082H.grib2 2026-05-05 09:03 404K
20260505T06Z_MSC_RDPS_AirTemp_IsbL-0225_RLatLon0.09_PT082H.grib2 2026-05-05 09:03 406K
20260505T06Z_MSC_RDPS_AirTemp_IsbL-0250_RLatLon0.09_PT082H.grib2 2026-05-05 09:03 413K
20260505T06Z_MSC_RDPS_AirTemp_IsbL-0275_RLatLon0.09_PT082H.grib2 2026-05-05 09:03 393K
20260505T06Z_MSC_RDPS_AirTemp_IsbL-0300_RLatLon0.09_PT082H.grib2 2026-05-05 09:03 425K
20260505T06Z_MSC_RDPS_AirTemp_IsbL-0350_RLatLon0.09_PT082H.grib2 2026-05-05 09:03 411K
20260505T06Z_MSC_RDPS_AirTemp_IsbL-0400_RLatLon0.09_PT082H.grib2 2026-05-05 09:03 414K
20260505T06Z_MSC_RDPS_AirTemp_IsbL-0450_RLatLon0.09_PT082H.grib2 2026-05-05 09:03 422K
20260505T06Z_MSC_RDPS_AirTemp_IsbL-0500_RLatLon0.09_PT082H.grib2 2026-05-05 09:03 434K
20260505T06Z_MSC_RDPS_AirTemp_IsbL-0550_RLatLon0.09_PT082H.grib2 2026-05-05 09:03 415K
20260505T06Z_MSC_RDPS_AirTemp_IsbL-0600_RLatLon0.09_PT082H.grib2 2026-05-05 09:03 430K
20260505T06Z_MSC_RDPS_AirTemp_IsbL-0650_RLatLon0.09_PT082H.grib2 2026-05-05 09:03 446K
20260505T06Z_MSC_RDPS_AirTemp_IsbL-0700_RLatLon0.09_PT082H.grib2 2026-05-05 09:03 475K
20260505T06Z_MSC_RDPS_AirTemp_IsbL-0750_RLatLon0.09_PT082H.grib2 2026-05-05 09:03 519K
20260505T06Z_MSC_RDPS_AirTemp_IsbL-0800_RLatLon0.09_PT082H.grib2 2026-05-05 09:03 579K
20260505T06Z_MSC_RDPS_AirTemp_IsbL-0850_RLatLon0.09_PT082H.grib2 2026-05-05 09:03 642K
20260505T06Z_MSC_RDPS_AirTemp_IsbL-0875_RLatLon0.09_PT082H.grib2 2026-05-05 09:03 664K
20260505T06Z_MSC_RDPS_AirTemp_IsbL-0900_RLatLon0.09_PT082H.grib2 2026-05-05 09:03 676K
20260505T06Z_MSC_RDPS_AirTemp_IsbL-0925_RLatLon0.09_PT082H.grib2 2026-05-05 09:03 543K
20260505T06Z_MSC_RDPS_AirTemp_IsbL-0950_RLatLon0.09_PT082H.grib2 2026-05-05 09:03 545K
20260505T06Z_MSC_RDPS_AirTemp_IsbL-0970_RLatLon0.09_PT082H.grib2 2026-05-05 09:03 538K
20260505T06Z_MSC_RDPS_AirTemp_IsbL-0985_RLatLon0.09_PT082H.grib2 2026-05-05 09:03 526K
20260505T06Z_MSC_RDPS_AirTemp_IsbL-1000_RLatLon0.09_PT082H.grib2 2026-05-05 09:03 513K
20260505T06Z_MSC_RDPS_AirTemp_IsbL-1015_RLatLon0.09_PT082H.grib2 2026-05-05 09:03 512K
20260505T06Z_MSC_RDPS_Albedo_Sfc_RLatLon0.09_PT082H.grib2 2026-05-05 09:03 157K
20260505T06Z_MSC_RDPS_CAPE_Sfc_RLatLon0.09_PT082H.grib2 2026-05-05 09:03 1.8M
20260505T06Z_MSC_RDPS_CIN_Sfc_RLatLon0.09_PT082H.grib2 2026-05-05 09:03 1.3M
20260505T06Z_MSC_RDPS_CloudWater_EAtm_RLatLon0.09_PT082H.grib2 2026-05-05 09:03 228K
20260505T06Z_MSC_RDPS_ConvectivePrecip-Accum_Sfc_RLatLon0.09_PT082H.grib2 2026-05-05 09:03 1.3M
20260505T06Z_MSC_RDPS_DewPointDepression_AGL-2m_RLatLon0.09_PT082H.grib2 2026-05-05 09:03 431K
20260505T06Z_MSC_RDPS_DewPointDepression_IsbL-0001_RLatLon0.09_PT082H.grib2 2026-05-05 09:03 193
20260505T06Z_MSC_RDPS_DewPointDepression_IsbL-0005_RLatLon0.09_PT082H.grib2 2026-05-05 09:03 193
20260505T06Z_MSC_RDPS_DewPointDepression_IsbL-0010_RLatLon0.09_PT082H.grib2 2026-05-05 09:03 193
20260505T06Z_MSC_RDPS_DewPointDepression_IsbL-0020_RLatLon0.09_PT082H.grib2 2026-05-05 09:03 193
20260505T06Z_MSC_RDPS_DewPointDepression_IsbL-0030_RLatLon0.09_PT082H.grib2 2026-05-05 09:03 193
20260505T06Z_MSC_RDPS_DewPointDepression_IsbL-0050_RLatLon0.09_PT082H.grib2 2026-05-05 09:03 112K
20260505T06Z_MSC_RDPS_DewPointDepression_IsbL-0100_RLatLon0.09_PT082H.grib2 2026-05-05 09:03 108K
20260505T06Z_MSC_RDPS_DewPointDepression_IsbL-0150_RLatLon0.09_PT082H.grib2 2026-05-05 09:03 137K
20260505T06Z_MSC_RDPS_DewPointDepression_IsbL-0175_RLatLon0.09_PT082H.grib2 2026-05-05 09:03 172K
20260505T06Z_MSC_RDPS_DewPointDepression_IsbL-0200_RLatLon0.09_PT082H.grib2 2026-05-05 09:03 219K
20260505T06Z_MSC_RDPS_DewPointDepression_IsbL-0225_RLatLon0.09_PT082H.grib2 2026-05-05 09:03 252K
20260505T06Z_MSC_RDPS_DewPointDepression_IsbL-0250_RLatLon0.09_PT082H.grib2 2026-05-05 09:03 301K
20260505T06Z_MSC_RDPS_DewPointDepression_IsbL-0275_RLatLon0.09_PT082H.grib2 2026-05-05 09:03 307K
20260505T06Z_MSC_RDPS_DewPointDepression_IsbL-0300_RLatLon0.09_PT082H.grib2 2026-05-05 09:03 321K
20260505T06Z_MSC_RDPS_DewPointDepression_IsbL-0350_RLatLon0.09_PT082H.grib2 2026-05-05 09:03 319K
20260505T06Z_MSC_RDPS_DewPointDepression_IsbL-0400_RLatLon0.09_PT082H.grib2 2026-05-05 09:03 322K
20260505T06Z_MSC_RDPS_DewPointDepression_IsbL-0450_RLatLon0.09_PT082H.grib2 2026-05-05 09:03 329K
20260505T06Z_MSC_RDPS_DewPointDepression_IsbL-0500_RLatLon0.09_PT082H.grib2 2026-05-05 09:03 339K
20260505T06Z_MSC_RDPS_DewPointDepression_IsbL-0550_RLatLon0.09_PT082H.grib2 2026-05-05 09:03 351K
20260505T06Z_MSC_RDPS_DewPointDepression_IsbL-0600_RLatLon0.09_PT082H.grib2 2026-05-05 09:03 365K
20260505T06Z_MSC_RDPS_DewPointDepression_IsbL-0650_RLatLon0.09_PT082H.grib2 2026-05-05 09:03 374K
20260505T06Z_MSC_RDPS_DewPointDepression_IsbL-0700_RLatLon0.09_PT082H.grib2 2026-05-05 09:03 388K
20260505T06Z_MSC_RDPS_DewPointDepression_IsbL-0750_RLatLon0.09_PT082H.grib2 2026-05-05 09:03 417K
20260505T06Z_MSC_RDPS_DewPointDepression_IsbL-0800_RLatLon0.09_PT082H.grib2 2026-05-05 09:03 460K
20260505T06Z_MSC_RDPS_DewPointDepression_IsbL-0850_RLatLon0.09_PT082H.grib2 2026-05-05 09:03 498K
20260505T06Z_MSC_RDPS_DewPointDepression_IsbL-0875_RLatLon0.09_PT082H.grib2 2026-05-05 09:03 494K
20260505T06Z_MSC_RDPS_DewPointDepression_IsbL-0900_RLatLon0.09_PT082H.grib2 2026-05-05 09:03 482K
20260505T06Z_MSC_RDPS_DewPointDepression_IsbL-0925_RLatLon0.09_PT082H.grib2 2026-05-05 09:03 467K
20260505T06Z_MSC_RDPS_DewPointDepression_IsbL-0950_RLatLon0.09_PT082H.grib2 2026-05-05 09:03 456K
20260505T06Z_MSC_RDPS_DewPointDepression_IsbL-0970_RLatLon0.09_PT082H.grib2 2026-05-05 09:03 449K
20260505T06Z_MSC_RDPS_DewPointDepression_IsbL-0985_RLatLon0.09_PT082H.grib2 2026-05-05 09:03 447K
20260505T06Z_MSC_RDPS_DewPointDepression_IsbL-1000_RLatLon0.09_PT082H.grib2 2026-05-05 09:03 444K
20260505T06Z_MSC_RDPS_DewPointDepression_IsbL-1015_RLatLon0.09_PT082H.grib2 2026-05-05 09:03 436K
20260505T06Z_MSC_RDPS_DewPoint_AGL-2m_RLatLon0.09_PT082H.grib2 2026-05-05 09:03 411K
20260505T06Z_MSC_RDPS_DownwardLongwaveRadiationFlux-Accum_Sfc_RLatLon0.09_PT082H.grib2 2026-05-05 09:03 442K
20260505T06Z_MSC_RDPS_DownwardShortwaveRadiationFlux-Accum_NTAtm_RLatLon0.09_PT082H.grib2 2026-05-05 09:03 113K
20260505T06Z_MSC_RDPS_DownwardShortwaveRadiationFlux-Accum_Sfc_RLatLon0.09_PT082H.grib2 2026-05-05 09:03 645K
20260505T06Z_MSC_RDPS_FreezingRain-Accum1h_Sfc_RLatLon0.09_PT082H.grib2 2026-05-05 09:03 37K
20260505T06Z_MSC_RDPS_FreezingRain-Accum_Sfc_RLatLon0.09_PT082H.grib2 2026-05-05 09:03 249K
20260505T06Z_MSC_RDPS_GeopotentialHeight_IsbL-0001_RLatLon0.09_PT082H.grib2 2026-05-05 09:03 242K
20260505T06Z_MSC_RDPS_GeopotentialHeight_IsbL-0005_RLatLon0.09_PT082H.grib2 2026-05-05 09:03 334K
20260505T06Z_MSC_RDPS_GeopotentialHeight_IsbL-0010_RLatLon0.09_PT082H.grib2 2026-05-05 09:03 303K
20260505T06Z_MSC_RDPS_GeopotentialHeight_IsbL-0020_RLatLon0.09_PT082H.grib2 2026-05-05 09:03 302K
20260505T06Z_MSC_RDPS_GeopotentialHeight_IsbL-0030_RLatLon0.09_PT082H.grib2 2026-05-05 09:03 304K
20260505T06Z_MSC_RDPS_GeopotentialHeight_IsbL-0050_RLatLon0.09_PT082H.grib2 2026-05-05 09:03 305K
20260505T06Z_MSC_RDPS_GeopotentialHeight_IsbL-0100_RLatLon0.09_PT082H.grib2 2026-05-05 09:03 281K
20260505T06Z_MSC_RDPS_GeopotentialHeight_IsbL-0150_RLatLon0.09_PT082H.grib2 2026-05-05 09:03 224K
20260505T06Z_MSC_RDPS_GeopotentialHeight_IsbL-0175_RLatLon0.09_PT082H.grib2 2026-05-05 09:03 227K
20260505T06Z_MSC_RDPS_GeopotentialHeight_IsbL-0200_RLatLon0.09_PT082H.grib2 2026-05-05 09:03 260K
20260505T06Z_MSC_RDPS_GeopotentialHeight_IsbL-0225_RLatLon0.09_PT082H.grib2 2026-05-05 09:03 261K
20260505T06Z_MSC_RDPS_GeopotentialHeight_IsbL-0250_RLatLon0.09_PT082H.grib2 2026-05-05 09:03 262K
20260505T06Z_MSC_RDPS_GeopotentialHeight_IsbL-0275_RLatLon0.09_PT082H.grib2 2026-05-05 09:03 261K
20260505T06Z_MSC_RDPS_GeopotentialHeight_IsbL-0300_RLatLon0.09_PT082H.grib2 2026-05-05 09:03 231K
20260505T06Z_MSC_RDPS_GeopotentialHeight_IsbL-0350_RLatLon0.09_PT082H.grib2 2026-05-05 09:03 227K
20260505T06Z_MSC_RDPS_GeopotentialHeight_IsbL-0400_RLatLon0.09_PT082H.grib2 2026-05-05 09:03 224K
20260505T06Z_MSC_RDPS_GeopotentialHeight_IsbL-0450_RLatLon0.09_PT082H.grib2 2026-05-05 09:03 290K
20260505T06Z_MSC_RDPS_GeopotentialHeight_IsbL-0500_RLatLon0.09_PT082H.grib2 2026-05-05 09:03 285K
20260505T06Z_MSC_RDPS_GeopotentialHeight_IsbL-0550_RLatLon0.09_PT082H.grib2 2026-05-05 09:03 281K
20260505T06Z_MSC_RDPS_GeopotentialHeight_IsbL-0600_RLatLon0.09_PT082H.grib2 2026-05-05 09:03 279K
20260505T06Z_MSC_RDPS_GeopotentialHeight_IsbL-0650_RLatLon0.09_PT082H.grib2 2026-05-05 09:03 249K
20260505T06Z_MSC_RDPS_GeopotentialHeight_IsbL-0700_RLatLon0.09_PT082H.grib2 2026-05-05 09:03 248K
20260505T06Z_MSC_RDPS_GeopotentialHeight_IsbL-0750_RLatLon0.09_PT082H.grib2 2026-05-05 09:03 333K
20260505T06Z_MSC_RDPS_GeopotentialHeight_IsbL-0800_RLatLon0.09_PT082H.grib2 2026-05-05 09:03 343K
20260505T06Z_MSC_RDPS_GeopotentialHeight_IsbL-0850_RLatLon0.09_PT082H.grib2 2026-05-05 09:03 355K
20260505T06Z_MSC_RDPS_GeopotentialHeight_IsbL-0875_RLatLon0.09_PT082H.grib2 2026-05-05 09:03 358K
20260505T06Z_MSC_RDPS_GeopotentialHeight_IsbL-0900_RLatLon0.09_PT082H.grib2 2026-05-05 09:03 395K
20260505T06Z_MSC_RDPS_GeopotentialHeight_IsbL-0925_RLatLon0.09_PT082H.grib2 2026-05-05 09:03 397K
20260505T06Z_MSC_RDPS_GeopotentialHeight_IsbL-0950_RLatLon0.09_PT082H.grib2 2026-05-05 09:03 401K
20260505T06Z_MSC_RDPS_GeopotentialHeight_IsbL-0970_RLatLon0.09_PT082H.grib2 2026-05-05 09:03 408K
20260505T06Z_MSC_RDPS_GeopotentialHeight_IsbL-0985_RLatLon0.09_PT082H.grib2 2026-05-05 09:03 419K
20260505T06Z_MSC_RDPS_GeopotentialHeight_IsbL-1000_RLatLon0.09_PT082H.grib2 2026-05-05 09:03 433K
20260505T06Z_MSC_RDPS_GeopotentialHeight_IsbL-1015_RLatLon0.09_PT082H.grib2 2026-05-05 09:03 452K
20260505T06Z_MSC_RDPS_Humidex_Sfc_RLatLon0.09_PT082H.grib2 2026-05-05 09:03 2.4M
20260505T06Z_MSC_RDPS_IcePellets-Accum1h_Sfc_RLatLon0.09_PT082H.grib2 2026-05-05 09:03 9.8K
20260505T06Z_MSC_RDPS_IcePellets-Accum_Sfc_RLatLon0.09_PT082H.grib2 2026-05-05 09:03 39K
20260505T06Z_MSC_RDPS_KIndex_Sfc_RLatLon0.09_PT082H.grib2 2026-05-05 09:03 2.5M
20260505T06Z_MSC_RDPS_LatentHeatNetFlux_Sfc_RLatLon0.09_PT082H.grib2 2026-05-05 09:03 400K
20260505T06Z_MSC_RDPS_LiftedIndex-MU-VT_IsbL-0500_RLatLon0.09_PT082H.grib2 2026-05-05 09:03 2.4M
20260505T06Z_MSC_RDPS_NetLongwaveRadiationFlux-Accum_Sfc_RLatLon0.09_PT082H.grib2 2026-05-05 09:03 491K
20260505T06Z_MSC_RDPS_NetShortwaveRadiationFlux-Accum_Sfc_RLatLon0.09_PT082H.grib2 2026-05-05 09:03 644K
20260505T06Z_MSC_RDPS_PlanetaryBoundaryLayerHeight_Sfc_RLatLon0.09_PT082H.grib2 2026-05-05 09:03 1.2M
20260505T06Z_MSC_RDPS_Precip-Accum1h_Sfc_RLatLon0.09_PT082H.grib2 2026-05-05 09:03 1.2M
20260505T06Z_MSC_RDPS_Precip-Accum_Sfc_RLatLon0.09_PT082H.grib2 2026-05-05 09:03 2.3M
20260505T06Z_MSC_RDPS_PrecipRate_Sfc_RLatLon0.09_PT082H.grib2 2026-05-05 09:03 169K
20260505T06Z_MSC_RDPS_PrecipType-Instant_Sfc_RLatLon0.09_PT082H.grib2 2026-05-05 09:03 556K
20260505T06Z_MSC_RDPS_Pressure-Trend3h_Sfc_RLatLon0.09_PT082H.grib2 2026-05-05 09:03 1.2M
20260505T06Z_MSC_RDPS_Pressure_MSL_RLatLon0.09_PT082H.grib2 2026-05-05 09:03 326K
20260505T06Z_MSC_RDPS_Pressure_PVU-1.5_RLatLon0.09_PT082H.grib2 2026-05-05 09:03 2.5M
20260505T06Z_MSC_RDPS_Pressure_PVU-1_RLatLon0.09_PT082H.grib2 2026-05-05 09:03 2.4M
20260505T06Z_MSC_RDPS_Pressure_PVU-2_RLatLon0.09_PT082H.grib2 2026-05-05 09:03 2.4M
20260505T06Z_MSC_RDPS_Pressure_Sfc_RLatLon0.09_PT082H.grib2 2026-05-05 09:03 499K
20260505T06Z_MSC_RDPS_RadiativeTemp_Sfc_RLatLon0.09_PT082H.grib2 2026-05-05 09:03 326K
20260505T06Z_MSC_RDPS_Rain-Accum1h_Sfc_RLatLon0.09_PT082H.grib2 2026-05-05 09:03 622K
20260505T06Z_MSC_RDPS_Rain-Accum_Sfc_RLatLon0.09_PT082H.grib2 2026-05-05 09:03 1.9M
20260505T06Z_MSC_RDPS_RelativeHumidity_AGL-2m_RLatLon0.09_PT082H.grib2 2026-05-05 09:03 1.0M
20260505T06Z_MSC_RDPS_RelativeHumidity_IsbL-0010_RLatLon0.09_PT082H.grib2 2026-05-05 09:03 573K
20260505T06Z_MSC_RDPS_RelativeHumidity_IsbL-0020_RLatLon0.09_PT082H.grib2 2026-05-05 09:03 637K
20260505T06Z_MSC_RDPS_RelativeHumidity_IsbL-0030_RLatLon0.09_PT082H.grib2 2026-05-05 09:03 633K
20260505T06Z_MSC_RDPS_RelativeHumidity_IsbL-0050_RLatLon0.09_PT082H.grib2 2026-05-05 09:03 357K
20260505T06Z_MSC_RDPS_RelativeHumidity_IsbL-0100_RLatLon0.09_PT082H.grib2 2026-05-05 09:03 274K
20260505T06Z_MSC_RDPS_RelativeHumidity_IsbL-0150_RLatLon0.09_PT082H.grib2 2026-05-05 09:03 398K
20260505T06Z_MSC_RDPS_RelativeHumidity_IsbL-0175_RLatLon0.09_PT082H.grib2 2026-05-05 09:03 458K
20260505T06Z_MSC_RDPS_RelativeHumidity_IsbL-0200_RLatLon0.09_PT082H.grib2 2026-05-05 09:03 533K
20260505T06Z_MSC_RDPS_RelativeHumidity_IsbL-0225_RLatLon0.09_PT082H.grib2 2026-05-05 09:03 603K
20260505T06Z_MSC_RDPS_RelativeHumidity_IsbL-0250_RLatLon0.09_PT082H.grib2 2026-05-05 09:03 673K
20260505T06Z_MSC_RDPS_RelativeHumidity_IsbL-0275_RLatLon0.09_PT082H.grib2 2026-05-05 09:03 698K
20260505T06Z_MSC_RDPS_RelativeHumidity_IsbL-0300_RLatLon0.09_PT082H.grib2 2026-05-05 09:03 740K
20260505T06Z_MSC_RDPS_RelativeHumidity_IsbL-0350_RLatLon0.09_PT082H.grib2 2026-05-05 09:03 753K
20260505T06Z_MSC_RDPS_RelativeHumidity_IsbL-0400_RLatLon0.09_PT082H.grib2 2026-05-05 09:03 765K
20260505T06Z_MSC_RDPS_RelativeHumidity_IsbL-0450_RLatLon0.09_PT082H.grib2 2026-05-05 09:03 776K
20260505T06Z_MSC_RDPS_RelativeHumidity_IsbL-0500_RLatLon0.09_PT082H.grib2 2026-05-05 09:03 788K
20260505T06Z_MSC_RDPS_RelativeHumidity_IsbL-0550_RLatLon0.09_PT082H.grib2 2026-05-05 09:03 808K
20260505T06Z_MSC_RDPS_RelativeHumidity_IsbL-0600_RLatLon0.09_PT082H.grib2 2026-05-05 09:03 831K
20260505T06Z_MSC_RDPS_RelativeHumidity_IsbL-0650_RLatLon0.09_PT082H.grib2 2026-05-05 09:03 845K
20260505T06Z_MSC_RDPS_RelativeHumidity_IsbL-0700_RLatLon0.09_PT082H.grib2 2026-05-05 09:03 873K
20260505T06Z_MSC_RDPS_RelativeHumidity_IsbL-0750_RLatLon0.09_PT082H.grib2 2026-05-05 09:03 926K
20260505T06Z_MSC_RDPS_RelativeHumidity_IsbL-0800_RLatLon0.09_PT082H.grib2 2026-05-05 09:03 1.0M
20260505T06Z_MSC_RDPS_RelativeHumidity_IsbL-0850_RLatLon0.09_PT082H.grib2 2026-05-05 09:03 1.1M
20260505T06Z_MSC_RDPS_RelativeHumidity_IsbL-0875_RLatLon0.09_PT082H.grib2 2026-05-05 09:03 1.1M
20260505T06Z_MSC_RDPS_RelativeHumidity_IsbL-0900_RLatLon0.09_PT082H.grib2 2026-05-05 09:03 1.1M
20260505T06Z_MSC_RDPS_RelativeHumidity_IsbL-0925_RLatLon0.09_PT082H.grib2 2026-05-05 09:03 1.1M
20260505T06Z_MSC_RDPS_RelativeHumidity_IsbL-0950_RLatLon0.09_PT082H.grib2 2026-05-05 09:03 1.1M
20260505T06Z_MSC_RDPS_RelativeHumidity_IsbL-0970_RLatLon0.09_PT082H.grib2 2026-05-05 09:03 1.1M
20260505T06Z_MSC_RDPS_RelativeHumidity_IsbL-0985_RLatLon0.09_PT082H.grib2 2026-05-05 09:03 1.1M
20260505T06Z_MSC_RDPS_RelativeHumidity_IsbL-1000_RLatLon0.09_PT082H.grib2 2026-05-05 09:03 1.0M
20260505T06Z_MSC_RDPS_RelativeHumidity_IsbL-1015_RLatLon0.09_PT082H.grib2 2026-05-05 09:03 1.0M
20260505T06Z_MSC_RDPS_Runoff-Accum_Sfc_RLatLon0.09_PT082H.grib2 2026-05-05 09:03 71K
20260505T06Z_MSC_RDPS_SWEATIndex_Sfc_RLatLon0.09_PT082H.grib2 2026-05-05 09:03 2.4M
20260505T06Z_MSC_RDPS_SeeingIndex_EAtm_RLatLon0.09_PT082H.grib2 2026-05-05 09:03 1.0M
20260505T06Z_MSC_RDPS_SensibleHeatNetFlux_Sfc_RLatLon0.09_PT082H.grib2 2026-05-05 09:03 280K
20260505T06Z_MSC_RDPS_ShowalterIndex_IsbL-0500_RLatLon0.09_PT082H.grib2 2026-05-05 09:03 2.6M
20260505T06Z_MSC_RDPS_SkyTransparencyIndex_EAtm_RLatLon0.09_PT082H.grib2 2026-05-05 09:03 704K
20260505T06Z_MSC_RDPS_Snow-Accum1h_Sfc_RLatLon0.09_PT082H.grib2 2026-05-05 09:03 425K
20260505T06Z_MSC_RDPS_Snow-Accum_Sfc_RLatLon0.09_PT082H.grib2 2026-05-05 09:03 788K
20260505T06Z_MSC_RDPS_SnowDensity_Sfc_RLatLon0.09_PT082H.grib2 2026-05-05 09:03 177K
20260505T06Z_MSC_RDPS_SnowDepth_Sfc_RLatLon0.09_PT082H.grib2 2026-05-05 09:03 638K
20260505T06Z_MSC_RDPS_SoilTemp_DBS-0to10cm_RLatLon0.09_PT082H.grib2 2026-05-05 09:03 244K
20260505T06Z_MSC_RDPS_SoilTemp_Sfc_RLatLon0.09_PT082H.grib2 2026-05-05 09:03 296K
20260505T06Z_MSC_RDPS_SoilVolumetricIceContent_Sfc_RLatLon0.09_PT082H.grib2 2026-05-05 09:03 147K
20260505T06Z_MSC_RDPS_SoilVolumetricWaterContent_DBS-0to10cm_RLatLon0.09_PT082H.grib2 2026-05-05 09:03 288K
20260505T06Z_MSC_RDPS_SoilVolumetricWaterContent_DBS-0to1cm_RLatLon0.09_PT082H.grib2 2026-05-05 09:03 346K
20260505T06Z_MSC_RDPS_SpecificHumidity_AGL-120m_RLatLon0.09_PT082H.grib2 2026-05-05 09:03 519K
20260505T06Z_MSC_RDPS_SpecificHumidity_AGL-2m_RLatLon0.09_PT082H.grib2 2026-05-05 09:03 689K
20260505T06Z_MSC_RDPS_SpecificHumidity_AGL-40m_RLatLon0.09_PT082H.grib2 2026-05-05 09:03 524K
20260505T06Z_MSC_RDPS_SpecificHumidity_AGL-80m_RLatLon0.09_PT082H.grib2 2026-05-05 09:03 521K
20260505T06Z_MSC_RDPS_SpecificHumidity_IsbL-0001_RLatLon0.09_PT082H.grib2 2026-05-05 09:03 374K
20260505T06Z_MSC_RDPS_SpecificHumidity_IsbL-0005_RLatLon0.09_PT082H.grib2 2026-05-05 09:03 364K
20260505T06Z_MSC_RDPS_SpecificHumidity_IsbL-0010_RLatLon0.09_PT082H.grib2 2026-05-05 09:03 396K
20260505T06Z_MSC_RDPS_SpecificHumidity_IsbL-0020_RLatLon0.09_PT082H.grib2 2026-05-05 09:03 372K
20260505T06Z_MSC_RDPS_SpecificHumidity_IsbL-0030_RLatLon0.09_PT082H.grib2 2026-05-05 09:03 357K
20260505T06Z_MSC_RDPS_SpecificHumidity_IsbL-0050_RLatLon0.09_PT082H.grib2 2026-05-05 09:03 462K
20260505T06Z_MSC_RDPS_SpecificHumidity_IsbL-0100_RLatLon0.09_PT082H.grib2 2026-05-05 09:03 409K
20260505T06Z_MSC_RDPS_SpecificHumidity_IsbL-0150_RLatLon0.09_PT082H.grib2 2026-05-05 09:03 442K
20260505T06Z_MSC_RDPS_SpecificHumidity_IsbL-0175_RLatLon0.09_PT082H.grib2 2026-05-05 09:03 429K
20260505T06Z_MSC_RDPS_SpecificHumidity_IsbL-0200_RLatLon0.09_PT082H.grib2 2026-05-05 09:03 462K
20260505T06Z_MSC_RDPS_SpecificHumidity_IsbL-0225_RLatLon0.09_PT082H.grib2 2026-05-05 09:03 463K
20260505T06Z_MSC_RDPS_SpecificHumidity_IsbL-0250_RLatLon0.09_PT082H.grib2 2026-05-05 09:03 539K
20260505T06Z_MSC_RDPS_SpecificHumidity_IsbL-0275_RLatLon0.09_PT082H.grib2 2026-05-05 09:03 469K
20260505T06Z_MSC_RDPS_SpecificHumidity_IsbL-0300_RLatLon0.09_PT082H.grib2 2026-05-05 09:03 441K
20260505T06Z_MSC_RDPS_SpecificHumidity_IsbL-0350_RLatLon0.09_PT082H.grib2 2026-05-05 09:03 429K
20260505T06Z_MSC_RDPS_SpecificHumidity_IsbL-0400_RLatLon0.09_PT082H.grib2 2026-05-05 09:03 506K
20260505T06Z_MSC_RDPS_SpecificHumidity_IsbL-0450_RLatLon0.09_PT082H.grib2 2026-05-05 09:03 560K
20260505T06Z_MSC_RDPS_SpecificHumidity_IsbL-0500_RLatLon0.09_PT082H.grib2 2026-05-05 09:03 499K
20260505T06Z_MSC_RDPS_SpecificHumidity_IsbL-0550_RLatLon0.09_PT082H.grib2 2026-05-05 09:03 572K
20260505T06Z_MSC_RDPS_SpecificHumidity_IsbL-0600_RLatLon0.09_PT082H.grib2 2026-05-05 09:03 628K
20260505T06Z_MSC_RDPS_SpecificHumidity_IsbL-0650_RLatLon0.09_PT082H.grib2 2026-05-05 09:03 549K
20260505T06Z_MSC_RDPS_SpecificHumidity_IsbL-0700_RLatLon0.09_PT082H.grib2 2026-05-05 09:03 597K
20260505T06Z_MSC_RDPS_SpecificHumidity_IsbL-0750_RLatLon0.09_PT082H.grib2 2026-05-05 09:03 663K
20260505T06Z_MSC_RDPS_SpecificHumidity_IsbL-0800_RLatLon0.09_PT082H.grib2 2026-05-05 09:03 758K
20260505T06Z_MSC_RDPS_SpecificHumidity_IsbL-0850_RLatLon0.09_PT082H.grib2 2026-05-05 09:03 841K
20260505T06Z_MSC_RDPS_SpecificHumidity_IsbL-0875_RLatLon0.09_PT082H.grib2 2026-05-05 09:03 863K
20260505T06Z_MSC_RDPS_SpecificHumidity_IsbL-0900_RLatLon0.09_PT082H.grib2 2026-05-05 09:03 875K
20260505T06Z_MSC_RDPS_SpecificHumidity_IsbL-0925_RLatLon0.09_PT082H.grib2 2026-05-05 09:03 876K
20260505T06Z_MSC_RDPS_SpecificHumidity_IsbL-0950_RLatLon0.09_PT082H.grib2 2026-05-05 09:03 874K
20260505T06Z_MSC_RDPS_SpecificHumidity_IsbL-0970_RLatLon0.09_PT082H.grib2 2026-05-05 09:03 724K
20260505T06Z_MSC_RDPS_SpecificHumidity_IsbL-0985_RLatLon0.09_PT082H.grib2 2026-05-05 09:03 717K
20260505T06Z_MSC_RDPS_SpecificHumidity_IsbL-1000_RLatLon0.09_PT082H.grib2 2026-05-05 09:03 713K
20260505T06Z_MSC_RDPS_SpecificHumidity_IsbL-1015_RLatLon0.09_PT082H.grib2 2026-05-05 09:03 703K
20260505T06Z_MSC_RDPS_SpecificHumidity_Sfc_RLatLon0.09_PT082H.grib2 2026-05-05 09:03 336K
20260505T06Z_MSC_RDPS_StormRelativeHelicity_EtaL-10000_RLatLon0.09_PT082H.grib2 2026-05-05 09:03 1.1M
20260505T06Z_MSC_RDPS_StormSeverityIndex_EtaL-10000_RLatLon0.09_PT082H.grib2 2026-05-05 09:03 1.1M
20260505T06Z_MSC_RDPS_Thickness_IsbL-0850to0700_RLatLon0.09_PT082H.grib2 2026-05-05 09:03 173K
20260505T06Z_MSC_RDPS_Thickness_IsbL-1000to0500_RLatLon0.09_PT082H.grib2 2026-05-05 09:03 197K
20260505T06Z_MSC_RDPS_Thickness_IsbL-1000to0850_RLatLon0.09_PT082H.grib2 2026-05-05 09:03 266K
20260505T06Z_MSC_RDPS_TotalCloudCover_Sfc_RLatLon0.09_PT082H.grib2 2026-05-05 09:03 668K
20260505T06Z_MSC_RDPS_TotalTotalsIndex_Sfc_RLatLon0.09_PT082H.grib2 2026-05-05 09:03 2.4M
20260505T06Z_MSC_RDPS_UVIndex-ClearSky_Sfc_RLatLon0.09_PT082H.grib2 2026-05-05 09:03 209K
20260505T06Z_MSC_RDPS_UVIndex_Sfc_RLatLon0.09_PT082H.grib2 2026-05-05 09:03 499K
20260505T06Z_MSC_RDPS_UpwardLongwaveRadiationFlux_NTAtm_RLatLon0.09_PT082H.grib2 2026-05-05 09:03 491K
20260505T06Z_MSC_RDPS_UpwardShortwaveRadiationFlux_NTAtm_RLatLon0.09_PT082H.grib2 2026-05-05 09:03 537K
20260505T06Z_MSC_RDPS_VerticalVelocity_IsbL-0250_RLatLon0.09_PT082H.grib2 2026-05-05 09:03 565K
20260505T06Z_MSC_RDPS_VerticalVelocity_IsbL-0500_RLatLon0.09_PT082H.grib2 2026-05-05 09:03 660K
20260505T06Z_MSC_RDPS_VerticalVelocity_IsbL-0700_RLatLon0.09_PT082H.grib2 2026-05-05 09:03 582K
20260505T06Z_MSC_RDPS_VerticalVelocity_IsbL-0850_RLatLon0.09_PT082H.grib2 2026-05-05 09:03 693K
20260505T06Z_MSC_RDPS_VerticalWindShear_EtaL-6500_RLatLon0.09_PT082H.grib2 2026-05-05 09:03 1.2M
20260505T06Z_MSC_RDPS_WindChill_Sfc_RLatLon0.09_PT082H.grib2 2026-05-05 09:03 1.2M
20260505T06Z_MSC_RDPS_WindDir_AGL-10m_RLatLon0.09_PT082H.grib2 2026-05-05 09:03 1.0M
20260505T06Z_MSC_RDPS_WindDir_AGL-120m_RLatLon0.09_PT082H.grib2 2026-05-05 09:03 640K
20260505T06Z_MSC_RDPS_WindDir_AGL-40m_RLatLon0.09_PT082H.grib2 2026-05-05 09:03 665K
20260505T06Z_MSC_RDPS_WindDir_AGL-80m_RLatLon0.09_PT082H.grib2 2026-05-05 09:03 651K
20260505T06Z_MSC_RDPS_WindDir_IsbL-0001_RLatLon0.09_PT082H.grib2 2026-05-05 09:03 291K
20260505T06Z_MSC_RDPS_WindDir_IsbL-0005_RLatLon0.09_PT082H.grib2 2026-05-05 09:03 386K
20260505T06Z_MSC_RDPS_WindDir_IsbL-0010_RLatLon0.09_PT082H.grib2 2026-05-05 09:03 385K
20260505T06Z_MSC_RDPS_WindDir_IsbL-0020_RLatLon0.09_PT082H.grib2 2026-05-05 09:03 411K
20260505T06Z_MSC_RDPS_WindDir_IsbL-0030_RLatLon0.09_PT082H.grib2 2026-05-05 09:03 412K
20260505T06Z_MSC_RDPS_WindDir_IsbL-0050_RLatLon0.09_PT082H.grib2 2026-05-05 09:03 454K
20260505T06Z_MSC_RDPS_WindDir_IsbL-0100_RLatLon0.09_PT082H.grib2 2026-05-05 09:03 418K
20260505T06Z_MSC_RDPS_WindDir_IsbL-0150_RLatLon0.09_PT082H.grib2 2026-05-05 09:03 412K
20260505T06Z_MSC_RDPS_WindDir_IsbL-0175_RLatLon0.09_PT082H.grib2 2026-05-05 09:03 438K
20260505T06Z_MSC_RDPS_WindDir_IsbL-0200_RLatLon0.09_PT082H.grib2 2026-05-05 09:03 455K
20260505T06Z_MSC_RDPS_WindDir_IsbL-0225_RLatLon0.09_PT082H.grib2 2026-05-05 09:03 459K
20260505T06Z_MSC_RDPS_WindDir_IsbL-0250_RLatLon0.09_PT082H.grib2 2026-05-05 09:03 459K
20260505T06Z_MSC_RDPS_WindDir_IsbL-0275_RLatLon0.09_PT082H.grib2 2026-05-05 09:03 477K
20260505T06Z_MSC_RDPS_WindDir_IsbL-0300_RLatLon0.09_PT082H.grib2 2026-05-05 09:03 474K
20260505T06Z_MSC_RDPS_WindDir_IsbL-0350_RLatLon0.09_PT082H.grib2 2026-05-05 09:03 497K
20260505T06Z_MSC_RDPS_WindDir_IsbL-0400_RLatLon0.09_PT082H.grib2 2026-05-05 09:03 515K
20260505T06Z_MSC_RDPS_WindDir_IsbL-0450_RLatLon0.09_PT082H.grib2 2026-05-05 09:03 537K
20260505T06Z_MSC_RDPS_WindDir_IsbL-0500_RLatLon0.09_PT082H.grib2 2026-05-05 09:03 555K
20260505T06Z_MSC_RDPS_WindDir_IsbL-0550_RLatLon0.09_PT082H.grib2 2026-05-05 09:03 564K
20260505T06Z_MSC_RDPS_WindDir_IsbL-0600_RLatLon0.09_PT082H.grib2 2026-05-05 09:03 585K
20260505T06Z_MSC_RDPS_WindDir_IsbL-0650_RLatLon0.09_PT082H.grib2 2026-05-05 09:03 622K
20260505T06Z_MSC_RDPS_WindDir_IsbL-0700_RLatLon0.09_PT082H.grib2 2026-05-05 09:03 669K
20260505T06Z_MSC_RDPS_WindDir_IsbL-0750_RLatLon0.09_PT082H.grib2 2026-05-05 09:03 724K
20260505T06Z_MSC_RDPS_WindDir_IsbL-0800_RLatLon0.09_PT082H.grib2 2026-05-05 09:03 794K
20260505T06Z_MSC_RDPS_WindDir_IsbL-0850_RLatLon0.09_PT082H.grib2 2026-05-05 09:03 871K
20260505T06Z_MSC_RDPS_WindDir_IsbL-0875_RLatLon0.09_PT082H.grib2 2026-05-05 09:03 899K
20260505T06Z_MSC_RDPS_WindDir_IsbL-0900_RLatLon0.09_PT082H.grib2 2026-05-05 09:03 919K
20260505T06Z_MSC_RDPS_WindDir_IsbL-0925_RLatLon0.09_PT082H.grib2 2026-05-05 09:03 934K
20260505T06Z_MSC_RDPS_WindDir_IsbL-0950_RLatLon0.09_PT082H.grib2 2026-05-05 09:03 938K
20260505T06Z_MSC_RDPS_WindDir_IsbL-0970_RLatLon0.09_PT082H.grib2 2026-05-05 09:03 945K
20260505T06Z_MSC_RDPS_WindDir_IsbL-0985_RLatLon0.09_PT082H.grib2 2026-05-05 09:03 955K
20260505T06Z_MSC_RDPS_WindDir_IsbL-1000_RLatLon0.09_PT082H.grib2 2026-05-05 09:03 973K
20260505T06Z_MSC_RDPS_WindDir_IsbL-1015_RLatLon0.09_PT082H.grib2 2026-05-05 09:03 1.0M
20260505T06Z_MSC_RDPS_WindGust-Max_AGL-10m_RLatLon0.09_PT082H.grib2 2026-05-05 09:03 1.0M
20260505T06Z_MSC_RDPS_WindGust-Min_AGL-10m_RLatLon0.09_PT082H.grib2 2026-05-05 09:03 1.0M
20260505T06Z_MSC_RDPS_WindGust_AGL-10m_RLatLon0.09_PT082H.grib2 2026-05-05 09:03 1.0M
20260505T06Z_MSC_RDPS_WindSpeed_AGL-10m_RLatLon0.09_PT082H.grib2 2026-05-05 09:03 1.0M
20260505T06Z_MSC_RDPS_WindSpeed_AGL-120m_RLatLon0.09_PT082H.grib2 2026-05-05 09:03 538K
20260505T06Z_MSC_RDPS_WindSpeed_AGL-40m_RLatLon0.09_PT082H.grib2 2026-05-05 09:03 671K
20260505T06Z_MSC_RDPS_WindSpeed_AGL-80m_RLatLon0.09_PT082H.grib2 2026-05-05 09:03 668K
20260505T06Z_MSC_RDPS_WindSpeed_IsbL-0001_RLatLon0.09_PT082H.grib2 2026-05-05 09:03 253K
20260505T06Z_MSC_RDPS_WindSpeed_IsbL-0005_RLatLon0.09_PT082H.grib2 2026-05-05 09:03 293K
20260505T06Z_MSC_RDPS_WindSpeed_IsbL-0010_RLatLon0.09_PT082H.grib2 2026-05-05 09:03 394K
20260505T06Z_MSC_RDPS_WindSpeed_IsbL-0020_RLatLon0.09_PT082H.grib2 2026-05-05 09:03 320K
20260505T06Z_MSC_RDPS_WindSpeed_IsbL-0030_RLatLon0.09_PT082H.grib2 2026-05-05 09:03 317K
20260505T06Z_MSC_RDPS_WindSpeed_IsbL-0050_RLatLon0.09_PT082H.grib2 2026-05-05 09:03 451K
20260505T06Z_MSC_RDPS_WindSpeed_IsbL-0100_RLatLon0.09_PT082H.grib2 2026-05-05 09:03 467K
20260505T06Z_MSC_RDPS_WindSpeed_IsbL-0150_RLatLon0.09_PT082H.grib2 2026-05-05 09:03 368K
20260505T06Z_MSC_RDPS_WindSpeed_IsbL-0175_RLatLon0.09_PT082H.grib2 2026-05-05 09:03 416K
20260505T06Z_MSC_RDPS_WindSpeed_IsbL-0200_RLatLon0.09_PT082H.grib2 2026-05-05 09:03 432K
20260505T06Z_MSC_RDPS_WindSpeed_IsbL-0225_RLatLon0.09_PT082H.grib2 2026-05-05 09:03 439K
20260505T06Z_MSC_RDPS_WindSpeed_IsbL-0250_RLatLon0.09_PT082H.grib2 2026-05-05 09:03 441K
20260505T06Z_MSC_RDPS_WindSpeed_IsbL-0275_RLatLon0.09_PT082H.grib2 2026-05-05 09:03 457K
20260505T06Z_MSC_RDPS_WindSpeed_IsbL-0300_RLatLon0.09_PT082H.grib2 2026-05-05 09:03 454K
20260505T06Z_MSC_RDPS_WindSpeed_IsbL-0350_RLatLon0.09_PT082H.grib2 2026-05-05 09:03 467K
20260505T06Z_MSC_RDPS_WindSpeed_IsbL-0400_RLatLon0.09_PT082H.grib2 2026-05-05 09:03 453K
20260505T06Z_MSC_RDPS_WindSpeed_IsbL-0450_RLatLon0.09_PT082H.grib2 2026-05-05 09:03 452K
20260505T06Z_MSC_RDPS_WindSpeed_IsbL-0500_RLatLon0.09_PT082H.grib2 2026-05-05 09:03 568K
20260505T06Z_MSC_RDPS_WindSpeed_IsbL-0550_RLatLon0.09_PT082H.grib2 2026-05-05 09:03 572K
20260505T06Z_MSC_RDPS_WindSpeed_IsbL-0600_RLatLon0.09_PT082H.grib2 2026-05-05 09:03 582K
20260505T06Z_MSC_RDPS_WindSpeed_IsbL-0650_RLatLon0.09_PT082H.grib2 2026-05-05 09:03 646K
20260505T06Z_MSC_RDPS_WindSpeed_IsbL-0700_RLatLon0.09_PT082H.grib2 2026-05-05 09:03 672K
20260505T06Z_MSC_RDPS_WindSpeed_IsbL-0750_RLatLon0.09_PT082H.grib2 2026-05-05 09:03 706K
20260505T06Z_MSC_RDPS_WindSpeed_IsbL-0800_RLatLon0.09_PT082H.grib2 2026-05-05 09:03 760K
20260505T06Z_MSC_RDPS_WindSpeed_IsbL-0850_RLatLon0.09_PT082H.grib2 2026-05-05 09:03 824K
20260505T06Z_MSC_RDPS_WindSpeed_IsbL-0875_RLatLon0.09_PT082H.grib2 2026-05-05 09:03 844K
20260505T06Z_MSC_RDPS_WindSpeed_IsbL-0900_RLatLon0.09_PT082H.grib2 2026-05-05 09:03 858K
20260505T06Z_MSC_RDPS_WindSpeed_IsbL-0925_RLatLon0.09_PT082H.grib2 2026-05-05 09:03 868K
20260505T06Z_MSC_RDPS_WindSpeed_IsbL-0950_RLatLon0.09_PT082H.grib2 2026-05-05 09:03 864K
20260505T06Z_MSC_RDPS_WindSpeed_IsbL-0970_RLatLon0.09_PT082H.grib2 2026-05-05 09:03 858K
20260505T06Z_MSC_RDPS_WindSpeed_IsbL-0985_RLatLon0.09_PT082H.grib2 2026-05-05 09:03 854K
20260505T06Z_MSC_RDPS_WindSpeed_IsbL-1000_RLatLon0.09_PT082H.grib2 2026-05-05 09:03 852K
20260505T06Z_MSC_RDPS_WindSpeed_IsbL-1015_RLatLon0.09_PT082H.grib2 2026-05-05 09:03 1.0M
20260505T06Z_MSC_RDPS_WindU_AGL-10m_RLatLon0.09_PT082H.grib2 2026-05-05 09:03 437K
20260505T06Z_MSC_RDPS_WindU_AGL-120m_RLatLon0.09_PT082H.grib2 2026-05-05 09:03 537K
20260505T06Z_MSC_RDPS_WindU_AGL-40m_RLatLon0.09_PT082H.grib2 2026-05-05 09:03 540K
20260505T06Z_MSC_RDPS_WindU_AGL-80m_RLatLon0.09_PT082H.grib2 2026-05-05 09:03 538K
20260505T06Z_MSC_RDPS_WindU_IsbL-0001_RLatLon0.09_PT082H.grib2 2026-05-05 09:03 293K
20260505T06Z_MSC_RDPS_WindU_IsbL-0005_RLatLon0.09_PT082H.grib2 2026-05-05 09:03 283K
20260505T06Z_MSC_RDPS_WindU_IsbL-0010_RLatLon0.09_PT082H.grib2 2026-05-05 09:03 296K
20260505T06Z_MSC_RDPS_WindU_IsbL-0020_RLatLon0.09_PT082H.grib2 2026-05-05 09:03 354K
20260505T06Z_MSC_RDPS_WindU_IsbL-0030_RLatLon0.09_PT082H.grib2 2026-05-05 09:03 313K
20260505T06Z_MSC_RDPS_WindU_IsbL-0050_RLatLon0.09_PT082H.grib2 2026-05-05 09:03 342K
20260505T06Z_MSC_RDPS_WindU_IsbL-0100_RLatLon0.09_PT082H.grib2 2026-05-05 09:03 423K
20260505T06Z_MSC_RDPS_WindU_IsbL-0150_RLatLon0.09_PT082H.grib2 2026-05-05 09:03 387K
20260505T06Z_MSC_RDPS_WindU_IsbL-0175_RLatLon0.09_PT082H.grib2 2026-05-05 09:03 411K
20260505T06Z_MSC_RDPS_WindU_IsbL-0200_RLatLon0.09_PT082H.grib2 2026-05-05 09:03 328K
20260505T06Z_MSC_RDPS_WindU_IsbL-0225_RLatLon0.09_PT082H.grib2 2026-05-05 09:03 333K
20260505T06Z_MSC_RDPS_WindU_IsbL-0250_RLatLon0.09_PT082H.grib2 2026-05-05 09:03 332K
20260505T06Z_MSC_RDPS_WindU_IsbL-0275_RLatLon0.09_PT082H.grib2 2026-05-05 09:03 346K
20260505T06Z_MSC_RDPS_WindU_IsbL-0300_RLatLon0.09_PT082H.grib2 2026-05-05 09:03 440K
20260505T06Z_MSC_RDPS_WindU_IsbL-0350_RLatLon0.09_PT082H.grib2 2026-05-05 09:03 451K
20260505T06Z_MSC_RDPS_WindU_IsbL-0400_RLatLon0.09_PT082H.grib2 2026-05-05 09:03 454K
20260505T06Z_MSC_RDPS_WindU_IsbL-0450_RLatLon0.09_PT082H.grib2 2026-05-05 09:03 456K
20260505T06Z_MSC_RDPS_WindU_IsbL-0500_RLatLon0.09_PT082H.grib2 2026-05-05 09:03 457K
20260505T06Z_MSC_RDPS_WindU_IsbL-0550_RLatLon0.09_PT082H.grib2 2026-05-05 09:03 443K
20260505T06Z_MSC_RDPS_WindU_IsbL-0600_RLatLon0.09_PT082H.grib2 2026-05-05 09:03 454K
20260505T06Z_MSC_RDPS_WindU_IsbL-0650_RLatLon0.09_PT082H.grib2 2026-05-05 09:03 472K
20260505T06Z_MSC_RDPS_WindU_IsbL-0700_RLatLon0.09_PT082H.grib2 2026-05-05 09:03 497K
20260505T06Z_MSC_RDPS_WindU_IsbL-0750_RLatLon0.09_PT082H.grib2 2026-05-05 09:03 652K
20260505T06Z_MSC_RDPS_WindU_IsbL-0800_RLatLon0.09_PT082H.grib2 2026-05-05 09:03 573K
20260505T06Z_MSC_RDPS_WindU_IsbL-0850_RLatLon0.09_PT082H.grib2 2026-05-05 09:03 630K
20260505T06Z_MSC_RDPS_WindU_IsbL-0875_RLatLon0.09_PT082H.grib2 2026-05-05 09:03 647K
20260505T06Z_MSC_RDPS_WindU_IsbL-0900_RLatLon0.09_PT082H.grib2 2026-05-05 09:03 658K
20260505T06Z_MSC_RDPS_WindU_IsbL-0925_RLatLon0.09_PT082H.grib2 2026-05-05 09:03 664K
20260505T06Z_MSC_RDPS_WindU_IsbL-0950_RLatLon0.09_PT082H.grib2 2026-05-05 09:03 658K
20260505T06Z_MSC_RDPS_WindU_IsbL-0970_RLatLon0.09_PT082H.grib2 2026-05-05 09:03 797K
20260505T06Z_MSC_RDPS_WindU_IsbL-0985_RLatLon0.09_PT082H.grib2 2026-05-05 09:03 795K
20260505T06Z_MSC_RDPS_WindU_IsbL-1000_RLatLon0.09_PT082H.grib2 2026-05-05 09:03 794K
20260505T06Z_MSC_RDPS_WindU_IsbL-1015_RLatLon0.09_PT082H.grib2 2026-05-05 09:03 836K
20260505T06Z_MSC_RDPS_WindV_AGL-10m_RLatLon0.09_PT082H.grib2 2026-05-05 09:03 433K
20260505T06Z_MSC_RDPS_WindV_AGL-120m_RLatLon0.09_PT082H.grib2 2026-05-05 09:03 533K
20260505T06Z_MSC_RDPS_WindV_AGL-40m_RLatLon0.09_PT082H.grib2 2026-05-05 09:03 536K
20260505T06Z_MSC_RDPS_WindV_AGL-80m_RLatLon0.09_PT082H.grib2 2026-05-05 09:03 534K
20260505T06Z_MSC_RDPS_WindV_IsbL-0001_RLatLon0.09_PT082H.grib2 2026-05-05 09:03 246K
20260505T06Z_MSC_RDPS_WindV_IsbL-0005_RLatLon0.09_PT082H.grib2 2026-05-05 09:03 285K
20260505T06Z_MSC_RDPS_WindV_IsbL-0010_RLatLon0.09_PT082H.grib2 2026-05-05 09:03 298K
20260505T06Z_MSC_RDPS_WindV_IsbL-0020_RLatLon0.09_PT082H.grib2 2026-05-05 09:03 316K
20260505T06Z_MSC_RDPS_WindV_IsbL-0030_RLatLon0.09_PT082H.grib2 2026-05-05 09:03 313K
20260505T06Z_MSC_RDPS_WindV_IsbL-0050_RLatLon0.09_PT082H.grib2 2026-05-05 09:03 342K
20260505T06Z_MSC_RDPS_WindV_IsbL-0100_RLatLon0.09_PT082H.grib2 2026-05-05 09:03 419K
20260505T06Z_MSC_RDPS_WindV_IsbL-0150_RLatLon0.09_PT082H.grib2 2026-05-05 09:03 384K
20260505T06Z_MSC_RDPS_WindV_IsbL-0175_RLatLon0.09_PT082H.grib2 2026-05-05 09:03 408K
20260505T06Z_MSC_RDPS_WindV_IsbL-0200_RLatLon0.09_PT082H.grib2 2026-05-05 09:03 328K
20260505T06Z_MSC_RDPS_WindV_IsbL-0225_RLatLon0.09_PT082H.grib2 2026-05-05 09:03 359K
20260505T06Z_MSC_RDPS_WindV_IsbL-0250_RLatLon0.09_PT082H.grib2 2026-05-05 09:03 359K
20260505T06Z_MSC_RDPS_WindV_IsbL-0275_RLatLon0.09_PT082H.grib2 2026-05-05 09:03 370K
20260505T06Z_MSC_RDPS_WindV_IsbL-0300_RLatLon0.09_PT082H.grib2 2026-05-05 09:03 367K
20260505T06Z_MSC_RDPS_WindV_IsbL-0350_RLatLon0.09_PT082H.grib2 2026-05-05 09:03 351K
20260505T06Z_MSC_RDPS_WindV_IsbL-0400_RLatLon0.09_PT082H.grib2 2026-05-05 09:03 353K
20260505T06Z_MSC_RDPS_WindV_IsbL-0450_RLatLon0.09_PT082H.grib2 2026-05-05 09:03 455K
20260505T06Z_MSC_RDPS_WindV_IsbL-0500_RLatLon0.09_PT082H.grib2 2026-05-05 09:03 456K
20260505T06Z_MSC_RDPS_WindV_IsbL-0550_RLatLon0.09_PT082H.grib2 2026-05-05 09:03 458K
20260505T06Z_MSC_RDPS_WindV_IsbL-0600_RLatLon0.09_PT082H.grib2 2026-05-05 09:03 466K
20260505T06Z_MSC_RDPS_WindV_IsbL-0650_RLatLon0.09_PT082H.grib2 2026-05-05 09:03 484K
20260505T06Z_MSC_RDPS_WindV_IsbL-0700_RLatLon0.09_PT082H.grib2 2026-05-05 09:03 491K
20260505T06Z_MSC_RDPS_WindV_IsbL-0750_RLatLon0.09_PT082H.grib2 2026-05-05 09:03 522K
20260505T06Z_MSC_RDPS_WindV_IsbL-0800_RLatLon0.09_PT082H.grib2 2026-05-05 09:03 569K
20260505T06Z_MSC_RDPS_WindV_IsbL-0850_RLatLon0.09_PT082H.grib2 2026-05-05 09:03 626K
20260505T06Z_MSC_RDPS_WindV_IsbL-0875_RLatLon0.09_PT082H.grib2 2026-05-05 09:03 644K
20260505T06Z_MSC_RDPS_WindV_IsbL-0900_RLatLon0.09_PT082H.grib2 2026-05-05 09:03 656K
20260505T06Z_MSC_RDPS_WindV_IsbL-0925_RLatLon0.09_PT082H.grib2 2026-05-05 09:03 663K
20260505T06Z_MSC_RDPS_WindV_IsbL-0950_RLatLon0.09_PT082H.grib2 2026-05-05 09:03 798K
20260505T06Z_MSC_RDPS_WindV_IsbL-0970_RLatLon0.09_PT082H.grib2 2026-05-05 09:03 795K
20260505T06Z_MSC_RDPS_WindV_IsbL-0985_RLatLon0.09_PT082H.grib2 2026-05-05 09:03 791K
20260505T06Z_MSC_RDPS_WindV_IsbL-1000_RLatLon0.09_PT082H.grib2 2026-05-05 09:03 834K
20260505T06Z_MSC_RDPS_WindV_IsbL-1015_RLatLon0.09_PT082H.grib2 2026-05-05 09:03 828K